Dewpoint
60 65 71 72 72 71 71 71 71 70 70 69 69 68 68 68 67 67 67 68 68 68 68 68 65 64 64 65 65 64 65 65 64 64 64 62 62 63 64 65 64 62 66
62 65 70 71 72 72 71 71 70 69 69 68 68 68 68 67 67 67 67 67 67 67 67 66 63 63 63 63 64 64 63 64 65 64 64 62 62 62 62 62 64 62 65
63 64 68 70 71 71 71 70 70 69 68 68 68 67 67 67 67 68 68 68 68 67 66 65 64 63 63 63 64 63 62 63 62 63 63 51 57 62 62 63 63 61 62
64 63 68 70 70 70 70 69 69 68 68 68 67 67 67 68 68 68 69 69 68 68 66 65 64 64 64 64 65 63 62 63 61 62 51 51 53 62 63 62 62 62 61
63 62 68 69 69 69 69 68 68 68 67 67 67 68 68 68 68 68 68 69 69 68 66 65 64 64 64 66 65 64 63 63 62 54 51 53 53 59 62 62 62 62 62
64 65 68 68 68 69 68 68 67 67 66 67 67 68 68 68 67 67 67 67 68 68 66 65 64 64 65 65 64 62 62 62 62 49 51 55 55 60 60 61 61 62 62
65 66 67 67 68 68 68 68 67 67 67 67 67 67 67 67 68 67 66 66 66 67 66 64 63 64 65 64 62 61 62 62 46 48 50 53 56 58 58 59 60 60 60
66 67 67 68 68 67 67 67 67 66 67 67 67 67 68 68 67 67 67 66 66 66 66 65 65 64 63 61 60 61 61 62 48 48 51 52 58 57 57 58 58 58 58
67 67 67 66 66 67 66 66 66 66 67 67 67 67 67 66 66 66 66 65 65 65 65 65 64 63 61 61 60 60 59 60 49 48 48 51 57 56 56 57 57 57 57
66 65 66 66 66 66 66 66 66 66 67 67 67 66 65 65 65 65 65 66 65 65 65 64 63 61 59 59 58 58 58 59 47 46 50 53 57 55 55 56 56 56 56
62 63 62 62 62 63 64 65 66 67 66 65 64 63 60 53 54 57 64 65 65 64 64 63 62 61 60 58 57 55 57 44 43 43 51 60 57 56 55 55 55 56 55
59 60 60 59 59 58 60 64 63 62 59 59 57 58 53 58 57 57 62 63 63 62 61 61 60 60 58 46 45 53 42 43 40 41 53 59 57 56 56 55 55 55 54
58 57 58 58 58 57 57 61 61 59 59 59 58 60 61 60 60 60 59 56 57 57 49 49 49 49 50 47 46 46 44 41 38 36 52 57 57 57 56 55 55 54 53
56 56 57 58 57 58 58 58 60 60 60 60 58 60 62 60 62 59 56 55 55 52 52 51 50 52 49 47 46 45 44 39 35 34 49 56 55 55 57 55 55 53 52
54 55 56 56 55 56 57 59 60 58 57 57 58 58 58 59 61 56 55 54 53 53 52 51 50 48 47 46 45 41 37 37 37 33 42 55 55 53 53 55 55 53 51
53 54 55 56 58 57 56 57 57 55 53 55 56 56 56 54 60 55 56 53 53 52 51 50 49 46 43 43 42 38 36 34 38 39 36 47 56 56 52 55 55 52 50
51 54 55 56 56 56 55 56 51 51 50 52 53 60 57 56 61 58 55 54 53 52 52 51 48 45 43 39 37 36 34 36 36 37 37 38 49 54 54 52 53 49 48
49 49 50 50 54 56 54 55 51 54 55 53 55 59 60 58 59 59 55 54 53 53 51 49 45 43 41 38 38 36 36 35 36 37 39 39 37 42 50 49 47 45 43
50 51 49 54 53 57 56 56 53 53 53 49 55 60 60 58 58 58 55 54 54 51 50 48 45 42 40 37 35 37 39 36 36 29 38 39 40 37 42 46 45 43 40
52 51 51 55 57 59 57 58 53 52 55 57 60 60 60 57 57 57 55 55 53 50 49 46 45 42 39 39 32 33 40 38 35 36 35 31 34 37 36 39 40 39 40
52 51 53 54 57 58 56 52 51 51 53 59 62 59 60 57 57 57 55 55 52 49 48 48 45 42 39 42 40 41 39 40 38 35 35 32 32 32 33 33 32 29 34
51 52 52 53 55 57 56 52 50 52 53 55 58 60 59 59 56 56 55 53 52 48 49 48 44 40 42 43 41 41 38 36 37 37 35 33 36 33 30 32 33 32 32
52 54 54 54 56 59 57 53 51 53 56 56 56 56 58 58 55 54 54 52 51 49 48 48 44 44 43 43 44 40 35 31 34 36 37 35 36 34 34 32 32 32 32
53 55 55 55 56 59 60 56 53 52 55 57 57 56 55 56 55 52 52 53 52 49 47 46 42 45 45 43 42 40 39 37 31 28 34 36 36 35 37 34 33 32 32
52 55 56 55 55 56 60 60 55 54 55 58 57 57 57 54 53 53 52 53 51 47 49 48 45 47 45 44 41 39 39 37 37 33 31 30 33 30 30 32 33 33 33
51 55 58 55 54 55 60 60 60 57 58 60 58 56 55 54 53 53 50 53 49 48 49 44 47 46 46 44 40 37 37 33 32 33 31 30 28 28 28 31 32 31 31
Lifted_Index
-5 -5 -6 -6 -6 -6 -5 -4 -3 -3 -2 -1 -0 -0 -0 -0 0 0 -0 -0 -0 -0 -1 0 1 2 1 1 1 1 1 1 1 1 2 3 3 3 2 1 1 0 -0
-5 -5 -6 -6 -6 -6 -5 -4 -3 -2 -2 -1 -1 -1 -0 -0 0 -0 -1 -1 -1 -1 -0 0 1 2 1 1 1 1 2 2 2 2 2 3 3 3 3 2 2 1 1
-5 -5 -6 -6 -6 -5 -5 -4 -3 -2 -2 -1 -1 -1 -0 -0 -0 -1 -1 -1 -1 -1 -1 0 1 1 1 1 1 1 2 2 2 2 3 3 3 3 2 2 2 2 2
-4 -4 -5 -6 -5 -5 -4 -3 -3 -2 -2 -1 -1 -1 -0 -1 -1 -1 -2 -2 -2 -2 -1 0 1 1 0 0 1 1 2 3 3 3 3 4 3 3 2 2 2 2 2
-3 -4 -4 -5 -5 -4 -4 -3 -2 -2 -2 -1 -1 -1 -1 -1 -1 -2 -2 -3 -3 -2 -1 -0 0 0 -0 -0 1 2 2 3 3 3 3 4 4 3 2 2 2 2 2
-3 -3 -4 -4 -4 -4 -3 -3 -2 -2 -1 -1 -2 -2 -2 -2 -2 -2 -2 -2 -2 -2 -1 -1 -0 -0 -0 0 1 2 3 3 3 3 3 4 4 3 3 3 2 2 2
-3 -3 -3 -4 -4 -4 -3 -3 -2 -2 -1 -1 -2 -2 -2 -2 -2 -2 -1 -1 -1 -1 -1 -1 -0 -0 0 1 2 3 4 4 4 3 3 4 4 4 4 3 3 3 3
-3 -3 -3 -3 -3 -3 -3 -2 -2 -1 -1 -2 -2 -2 -2 -2 -2 -2 -1 -0 -1 -1 -1 -1 -1 -0 1 2 3 4 4 4 4 3 3 4 4 4 4 4 4 4 4
-3 -3 -2 -2 -2 -2 -2 -1 -1 -1 -1 -2 -2 -2 -1 -1 -1 -1 -0 -0 -0 -1 -1 -1 -0 1 2 3 4 5 5 4 4 3 4 4 4 5 5 5 5 5 5
-3 -2 -1 -1 -1 -1 -1 -1 -1 -1 -1 -1 -1 0 1 1 1 1 0 -0 -1 -1 -1 -0 1 2 3 4 5 6 6 5 4 4 4 4 4 5 5 5 5 5 5
-3 -2 -1 -0 0 0 -0 -0 -1 -1 -0 0 1 2 3 3 2 1 0 -1 -1 -0 0 1 2 3 4 5 6 6 6 6 6 5 4 3 3 4 5 5 5 6 6
-3 -2 -1 1 2 2 2 1 0 0 1 2 3 3 3 3 2 1 0 -1 0 1 2 2 3 4 4 5 6 6 6 7 7 6 5 4 3 4 4 5 5 6 6
-2 -1 0 1 3 4 4 3 2 2 2 2 3 3 2 2 1 1 0 0 1 2 3 3 4 4 4 5 6 6 7 7 8 8 7 5 4 4 4 5 6 6 6
-0 0 1 3 4 5 5 5 4 3 3 3 3 2 2 1 1 0 -0 0 1 2 3 3 3 4 5 5 6 7 8 9 9 9 8 7 6 5 4 5 5 6 7
1 2 4 5 5 6 6 6 5 4 4 3 3 2 2 1 -0 -1 -0 0 1 2 2 3 3 4 5 6 7 8 9 10 10 10 9 8 7 6 5 5 5 6 7
3 4 5 6 6 6 6 6 6 5 4 4 3 2 1 0 -1 -1 -0 0 1 2 2 3 4 5 6 7 8 9 10 11 11 10 10 9 7 6 5 5 5 6 7
5 5 6 7 6 6 6 5 5 4 4 3 2 1 -0 -1 -1 -1 -0 0 1 2 2 3 4 5 7 8 9 10 11 11 11 11 10 9 8 7 6 5 6 6 7
4 5 6 6 5 5 4 4 4 3 2 2 1 -1 -1 -2 -2 -1 -0 0 1 2 3 4 5 6 7 8 9 10 10 11 11 11 10 9 9 8 7 7 7 7 7
3 3 4 4 3 2 2 2 2 2 1 1 -0 -2 -2 -2 -2 -1 -0 0 1 2 3 4 6 7 8 8 9 9 10 10 11 11 10 10 9 9 8 8 8 8 8
2 2 2 2 1 0 0 1 1 1 0 -1 -2 -3 -2 -2 -1 -1 -0 0 1 2 4 5 6 7 8 8 8 9 9 10 10 10 10 10 10 10 10 9 9 10 10
1 2 2 1 0 -1 -1 0 1 1 -0 -2 -3 -3 -3 -2 -1 -1 0 1 2 3 4 5 7 7 7 6 6 7 8 9 9 10 10 10 10 10 10 10 10 11 11
0 0 0 0 -1 -2 -1 -0 0 0 -1 -2 -2 -3 -3 -2 -1 -0 0 1 2 3 4 6 7 7 7 6 5 5 6 7 9 9 10 10 10 10 10 11 11 11 11
-1 -1 -1 -1 -2 -2 -2 -1 -1 -1 -1 -2 -2 -2 -2 -1 -1 0 1 2 3 4 5 6 7 7 6 5 5 5 5 6 7 8 9 9 9 10 10 10 11 11 11
-1 -2 -2 -2 -2 -3 -3 -3 -2 -2 -2 -2 -2 -2 -1 -1 -0 1 1 2 3 4 5 6 7 6 6 5 5 6 7 7 7 7 8 9 9 9 10 10 11 11 11
-2 -2 -3 -3 -3 -3 -4 -4 -3 -2 -3 -3 -2 -2 -1 -0 0 1 1 2 3 4 5 6 7 6 6 5 6 7 8 8 7 7 7 8 8 9 10 10 10 11 11
-3 -3 -3 -3 -3 -3 -4 -4 -3 -3 -3 -3 -3 -1 -1 -0 -0 0 1 2 2 4 5 6 7 7 6 6 6 7 8 8 8 7 7 7 8 9 9 10 10 11 11